GFSGBSN_925_rhum_231.txt.gz
RH
100 100 94 87 78 66 70 84 90 92 80 72 64 61 53 51 45 43 39 36 33 30 25 23 37 36 33 48 32 22 19 21 22 25 28 25 24 20 24 22 20 21 20 17 15 14 14
98 100 100 91 89 83 71 59 78 89 94 83 75 70 63 55 50 48 40 33 33 28 26 22 38 37 52 48 20 18 26 21 24 25 22 20 21 19 22 22 24 21 21 19 17 16 16
92 98 99 100 98 93 84 72 59 64 72 83 78 74 69 62 54 51 47 35 29 27 25 25 40 40 52 42 19 18 23 19 20 22 22 16 17 20 21 23 20 20 23 21 19 17 16
86 89 98 100 99 100 100 92 80 67 62 62 74 70 69 65 56 52 50 40 27 25 24 38 42 44 54 25 21 22 19 20 18 17 18 18 17 21 22 21 22 25 25 30 19 18 16
94 92 90 96 99 99 100 100 96 85 77 65 59 75 70 70 60 52 46 38 26 24 26 45 42 53 51 24 22 20 20 20 20 19 18 18 17 23 25 31 35 30 38 30 24 17 17
77 90 88 92 95 98 100 100 100 100 91 78 64 63 70 68 65 54 43 32 23 40 45 52 49 43 34 26 21 21 20 20 20 19 21 23 25 29 34 37 46 35 30 27 28 19 17
54 68 82 83 88 92 96 98 100 100 100 90 78 58 69 70 66 54 43 36 46 48 43 46 43 37 29 22 20 21 21 21 20 22 29 26 34 39 33 31 27 26 27 28 24 18 20
63 56 56 75 80 71 75 76 81 98 100 100 92 73 64 75 65 57 45 66 51 53 73 46 42 35 30 23 27 25 22 28 27 33 26 29 36 28 24 24 24 26 28 29 24 20 23
73 65 56 46 58 72 64 62 60 76 93 97 94 84 68 70 63 50 39 43 48 51 73 45 32 30 29 23 25 24 25 26 29 33 30 31 26 21 22 24 25 26 29 29 29 28 26
78 77 69 57 46 47 59 60 57 64 85 96 99 91 64 72 60 50 49 48 48 54 84 40 32 27 27 22 29 20 22 26 30 31 28 26 20 22 24 26 24 32 24 28 32 39 49
73 72 75 69 56 46 46 60 63 76 94 98 100 93 78 72 68 65 62 50 47 65 68 23 32 22 24 28 21 20 20 26 33 32 25 31 26 27 29 26 24 32 31 33 35 42 45
80 75 73 72 68 57 45 58 64 64 86 92 100 100 86 84 72 66 63 50 60 78 87 32 31 33 32 28 23 18 24 20 20 28 29 32 24 26 26 23 25 28 33 36 38 42 60
88 79 74 70 73 65 53 52 62 58 69 80 92 100 93 77 66 48 60 69 77 99 24 22 37 32 32 32 28 25 27 29 37 43 47 36 33 27 24 34 31 32 44 72 72 63 60
89 90 83 76 65 67 61 47 62 57 53 66 82 99 93 74 61 66 56 82 94 43 32 20 26 31 37 29 28 28 34 38 34 36 48 50 51 31 26 30 34 34 38 66 88 93 67
87 89 88 87 78 56 64 57 47 58 52 56 94 100 100 78 68 71 79 88 65 44 27 25 24 32 36 30 33 32 36 38 34 36 49 49 39 29 31 32 33 38 48 38 59 62 74
89 90 92 91 88 82 59 60 49 51 50 61 98 100 96 72 67 82 87 66 57 37 28 28 38 38 42 37 43 42 41 34 36 32 34 43 57 41 38 31 30 37 37 59 75 99 96
91 88 92 93 89 86 76 63 59 43 50 66 96 100 84 80 76 92 93 81 59 42 39 43 49 59 45 43 43 47 42 36 34 39 38 42 60 60 47 44 49 53 57 57 64 80 100
87 90 88 91 91 89 84 62 60 53 56 98 90 97 93 78 92 95 93 74 53 51 43 45 47 56 55 52 47 61 47 46 48 41 49 59 71 82 70 45 46 54 61 63 96 95 91
90 86 90 88 89 82 89 81 58 62 76 90 95 92 83 72 96 94 76 70 60 57 50 48 48 52 50 56 58 49 55 64 61 53 57 55 73 90 66 66 57 62 61 63 75 89 95
94 92 86 93 93 89 83 87 69 62 68 83 92 100 100 95 79 77 82 78 77 59 61 54 53 53 60 62 54 56 56 70 67 77 84 62 72 72 76 61 64 76 66 65 78 97 86
94 89 93 92 93 94 92 91 83 62 58 86 95 95 90 100 95 81 72 69 77 77 59 50 59 58 74 90 66 73 56 74 73 79 78 79 99 88 81 75 75 81 80 80 83 75 97
93 94 88 87 90 92 97 96 93 71 59 90 98 96 92 87 79 87 88 83 77 72 64 68 66 58 62 82 78 70 58 63 78 83 88 92 100 95 100 78 77 84 77 75 74 75 76
94 93 94 86 85 89 94 98 96 86 68 85 74 84 86 85 89 93 85 79 74 67 61 56 55 58 71 64 67 84 85 85 81 86 96 100 100 100 86 73 93 94 68 59 68 66 74
97 96 94 92 88 90 92 94 97 92 64 63 71 87 96 92 87 81 69 70 75 66 69 59 53 64 68 75 74 74 76 76 80 83 86 99 100 100 95 93 93 52 30 32 52 47 50
98 97 96 95 94 92 92 93 96 94 69 64 70 82 98 89 84 82 73 70 73 64 73 61 84 90 80 82 96 98 94 83 86 92 92 85 96 99 97 89 77 62 41 36 39 40 46
96 98 96 96 96 93 89 90 95 91 76 78 69 87 98 97 90 73 82 76 84 80 77 99 93 89 81 99 100 100 98 80 89 95 92 97 98 98 99 98 90 49 28 24 26 54 48
98 95 97 95 97 99 93 91 94 91 75 94 80 79 88 100 92 87 85 88 77 76 82 100 100 95 92 100 100 99 95 71 93 96 99 99 99 97 96 98 94 42 30 30 66 71 39
94 97 99 97 98 98 97 92 92 90 80 91 85 79 81 96 98 98 96 92 87 87 95 100 97 99 100 100 99 99 99 89 94 73 87 86 96 97 98 98 95 38 39 57 61 47 41
89 94 100 99 98 99 99 94 91 86 84 89 86 96 87 96 100 98 99 100 98 99 99 94 86 96 94 98 100 98 100 99 98 92 74 99 91 97 86 93 47 35 50 37 49 55 44

GFSGBSN_925_rhum_237.txt.gz
RH
96 98 88 83 78 70 69 65 61 66 75 74 72 68 64 60 59 60 52 41 41 35 33 30 28 28 33 41 38 23 20 20 23 25 28 28 28 27 28 26 24 27 24 22 22 24 22
100 99 98 100 89 80 70 65 63 57 56 62 70 70 70 66 60 56 55 44 37 36 30 30 28 27 46 35 23 19 19 21 23 28 25 26 23 22 24 25 26 24 25 25 24 23 22
100 100 100 99 100 93 82 77 74 67 60 56 52 58 64 66 63 60 53 46 36 32 30 28 28 40 55 35 22 19 21 21 21 22 24 22 21 21 22 24 22 22 26 26 22 21 21
98 95 97 100 100 97 95 88 86 78 68 67 62 58 55 60 61 59 54 43 34 30 28 28 37 44 46 29 28 20 21 21 21 21 22 21 19 21 24 23 27 28 28 32 22 20 21
87 98 94 94 99 99 97 97 92 99 88 76 73 66 56 50 48 53 49 40 28 30 37 45 48 51 51 29 29 25 23 21 21 21 21 20 19 23 25 33 38 37 36 35 31 22 23
73 74 93 95 87 97 100 100 99 99 100 96 83 78 69 56 42 45 44 35 29 47 49 50 52 51 29 28 26 22 21 22 23 22 22 23 32 32 39 42 46 40 39 35 35 26 23
67 64 74 88 96 90 96 98 100 99 100 100 92 85 77 66 50 50 46 34 52 50 48 45 44 46 36 26 25 22 22 23 24 24 32 28 39 44 38 37 33 32 34 38 33 25 25
68 68 67 67 75 88 89 96 99 96 98 100 98 92 78 72 54 50 57 56 49 54 80 56 56 52 35 33 36 29 22 29 32 40 32 34 44 32 30 33 36 36 41 41 32 26 29
74 72 67 68 64 74 88 85 89 90 85 98 96 97 86 81 58 50 54 45 50 54 72 58 53 43 38 37 34 32 27 32 35 38 38 43 34 30 32 35 38 39 39 34 33 34 34
85 84 79 71 66 62 66 76 80 70 71 73 92 99 95 81 57 52 58 62 54 55 68 51 46 43 32 35 37 27 25 31 35 40 40 41 32 34 37 38 35 40 28 31 37 41 49
67 73 76 79 81 74 63 59 60 67 62 65 82 90 100 81 56 79 65 63 58 61 68 25 32 27 27 26 24 24 27 29 40 37 35 40 29 31 35 33 28 34 32 35 35 44 47
69 71 74 72 69 72 78 66 58 57 60 59 68 91 100 94 72 56 68 62 59 49 66 32 33 34 33 31 30 26 30 25 29 34 34 38 27 30 34 29 29 30 34 46 51 55 67
63 67 71 70 64 70 70 79 66 53 59 62 67 91 100 96 67 48 65 62 62 75 35 31 36 37 37 38 34 29 36 37 39 40 43 40 38 32 30 35 31 36 45 63 58 63 69
75 66 63 68 75 70 67 67 76 65 58 67 73 84 99 93 66 62 61 62 75 53 45 32 27 33 42 37 36 35 34 47 36 38 50 57 54 41 31 36 44 45 55 70 64 76 61
82 76 65 59 74 78 73 66 69 73 59 73 72 83 100 97 77 76 70 82 69 56 41 37 36 33 37 38 35 36 40 41 37 37 44 60 54 38 42 43 47 47 56 46 64 78 90
77 84 76 68 56 73 79 71 65 74 64 78 98 98 99 86 85 85 88 67 58 50 41 39 43 40 51 44 43 41 42 36 34 37 37 43 59 54 46 38 48 43 42 51 81 83 89
81 81 79 71 61 68 76 75 67 66 71 76 97 99 77 84 91 99 94 78 59 49 44 48 51 53 58 58 44 48 46 52 61 53 47 51 62 60 59 59 63 54 54 69 70 89 94
81 83 84 77 66 72 82 78 71 67 79 84 93 97 94 100 98 87 85 69 53 55 50 51 51 54 56 58 62 54 56 58 70 59 66 80 74 73 70 69 59 58 55 65 83 72 94
87 86 85 83 65 73 83 79 74 74 86 87 94 93 100 94 97 96 77 72 63 63 60 60 62 57 44 49 55 59 60 75 75 70 70 72 88 90 70 57 62 65 65 68 77 93 94
88 88 88 86 73 74 83 79 73 79 80 69 96 99 100 98 86 82 86 84 84 64 65 62 63 59 60 67 65 68 72 80 75 84 87 78 86 87 92 60 65 74 72 65 71 98 76
96 92 90 87 80 77 82 81 73 73 76 70 98 95 90 100 97 81 72 74 76 80 70 68 71 70 68 79 74 72 78 77 77 84 86 83 96 95 89 71 74 71 74 76 87 76 91
91 92 89 85 75 81 78 84 74 74 75 85 98 99 98 96 80 92 83 78 77 64 78 82 84 71 76 83 70 63 63 74 73 88 87 95 98 98 100 97 90 93 88 84 80 78 78
92 92 92 90 77 73 86 87 74 72 74 88 70 87 93 91 88 92 86 77 73 70 72 62 68 74 77 67 68 72 76 76 72 83 94 99 98 100 89 80 84 93 92 81 66 62 68
92 92 92 94 90 81 78 85 81 75 75 74 68 80 96 99 91 85 74 68 67 75 73 70 67 75 67 78 72 73 80 86 89 88 82 99 99 100 97 92 96 60 51 48 59 60 44
93 93 93 94 94 89 85 90 81 77 75 77 64 70 96 97 94 82 84 79 70 67 78 67 73 68 81 72 90 90 94 88 90 95 98 89 96 100 100 95 78 71 56 49 59 54 45
94 94 93 94 94 92 87 85 82 80 76 86 67 58 79 92 88 73 83 79 85 85 85 85 88 88 74 98 100 96 86 91 88 94 86 92 93 96 99 99 94 59 28 27 37 71 42
95 93 94 96 95 92 90 90 83 78 76 94 73 66 68 95 95 94 83 89 76 83 94 100 100 97 84 100 100 98 97 78 98 98 99 99 99 97 96 98 97 66 28 43 82 71 46
98 95 95 97 95 91 87 82 82 78 72 87 87 68 71 90 95 91 89 88 88 88 96 100 98 100 100 100 100 97 99 89 91 78 82 89 98 98 99 99 95 39 41 65 68 48 42
99 97 96 96 93 88 82 84 78 78 79 83 95 68 75 89 95 95 94 90 89 92 94 99 92 94 96 98 100 97 100 98 92 98 74 95 89 92 92 89 57 60 73 71 64 54 44

GFSGBSN_925_rhum_240.txt.gz
RH
94 87 81 74 73 69 69 67 66 68 72 73 71 68 68 66 62 57 50 44 38 38 32 30 30 27 26 38 32 25 21 20 25 25 27 30 28 28 29 28 26 28 26 24 24 24 25
100 100 95 98 91 85 78 73 68 65 59 57 57 63 62 62 60 56 54 46 39 33 32 29 28 29 39 23 24 21 20 20 24 27 27 27 24 24 26 27 27 25 26 27 26 25 25
100 99 100 100 96 96 91 84 78 72 69 62 55 52 52 51 53 55 50 45 36 32 30 26 29 37 49 26 24 21 22 22 23 23 24 23 22 23 23 26 23 24 28 27 25 22 24
100 100 99 100 100 98 96 98 91 84 78 74 70 60 54 48 44 43 42 38 32 30 30 34 43 43 42 25 32 28 23 24 24 24 23 20 22 23 25 24 28 30 29 34 23 24 22
98 100 94 98 99 100 98 97 98 97 94 84 80 76 69 56 46 38 31 29 25 29 42 48 49 50 45 28 31 29 22 23 22 23 24 22 20 26 28 35 38 40 42 34 32 25 24
74 89 98 98 92 100 99 99 98 100 100 99 94 87 78 68 57 42 30 25 26 41 51 54 54 48 29 29 29 24 23 25 23 24 24 26 35 35 42 41 42 39 41 36 37 29 26
69 70 81 86 93 91 94 98 97 99 100 100 99 96 90 79 67 48 31 30 45 43 48 39 39 43 38 25 23 24 24 24 25 26 34 30 39 46 41 39 33 37 38 41 36 30 29
70 74 73 80 88 93 96 94 98 96 96 99 100 98 95 88 70 51 44 51 48 59 84 58 58 54 39 35 34 31 24 29 33 41 34 35 45 37 34 35 37 38 42 44 37 31 33
71 70 68 67 66 78 86 93 96 94 94 88 98 100 100 95 69 50 48 47 54 52 80 60 59 52 43 41 39 32 28 31 35 42 40 46 36 33 34 36 40 42 45 44 41 34 37
80 77 73 68 69 66 77 94 91 86 93 89 88 98 100 98 68 52 49 66 64 58 77 46 45 44 39 40 35 28 25 31 37 40 42 42 34 34 36 42 40 47 38 37 35 43 52
82 85 86 81 76 67 64 67 71 78 70 73 85 89 100 97 59 70 70 70 58 56 77 32 31 30 35 31 26 27 28 31 41 39 40 40 32 33 36 36 36 39 30 37 38 46 48
62 65 77 78 79 83 82 71 63 62 62 66 66 83 100 100 78 69 64 71 54 53 64 31 34 35 35 32 32 29 31 27 32 37 36 38 31 30 33 30 30 30 36 44 56 59 69
71 71 70 66 66 68 69 77 79 64 56 59 64 66 100 100 80 64 64 66 73 74 35 31 34 38 39 39 37 32 39 40 42 45 43 41 39 33 31 35 33 37 46 66 67 64 66
74 71 68 68 68 65 67 69 76 75 61 67 71 78 90 100 83 72 61 77 80 54 47 35 31 34 37 39 38 36 42 48 39 41 51 53 51 42 40 40 43 48 62 81 66 66 58
68 67 65 63 64 72 74 68 65 76 72 70 75 80 96 97 96 78 83 94 73 57 43 40 32 35 37 38 39 36 41 46 42 38 49 57 58 41 47 46 50 50 58 54 66 80 90
79 74 69 65 61 68 78 76 68 66 77 73 78 99 97 83 100 89 97 83 58 50 45 42 42 40 54 52 43 40 41 38 36 39 35 41 57 60 50 41 48 45 47 54 80 87 93
81 78 76 76 68 58 61 76 75 68 80 76 79 97 77 77 100 97 97 84 61 49 46 51 51 49 58 57 53 50 44 56 70 56 45 51 64 60 58 59 62 60 58 75 76 86 98
84 82 78 77 75 70 56 64 77 75 85 84 90 97 86 94 98 97 90 70 52 51 51 50 52 53 58 60 55 59 59 76 76 68 65 77 80 83 69 71 68 61 56 62 95 86 98
82 78 77 79 70 69 58 63 74 83 85 91 96 94 98 99 92 93 77 73 62 60 59 58 58 55 48 49 50 55 70 75 78 79 70 72 90 97 83 67 61 74 68 66 77 88 84
79 80 80 78 72 73 62 67 75 82 80 66 97 95 97 96 84 83 87 76 78 62 62 62 62 58 60 64 63 57 71 76 78 83 84 78 88 85 80 70 77 92 90 80 73 96 74
84 80 79 79 80 69 70 62 78 81 77 69 97 96 89 100 95 92 83 80 82 90 71 66 71 64 65 77 73 74 72 73 78 83 84 80 90 85 82 82 92 92 90 79 85 73 82
85 80 79 79 86 73 66 60 73 85 76 83 97 98 95 97 82 87 86 93 79 72 80 79 77 69 75 79 67 62 66 71 73 83 84 94 89 97 95 89 89 96 84 83 74 73 73
87 85 83 83 84 82 73 64 66 86 80 84 76 88 94 91 90 94 82 76 78 72 65 68 73 76 77 75 70 69 69 71 70 76 87 98 99 100 85 80 82 91 86 84 69 70 72
91 88 84 84 85 84 80 68 71 83 81 72 70 77 95 98 95 92 78 77 73 72 71 70 70 74 64 73 70 74 84 90 93 90 84 99 97 100 94 94 95 58 56 66 70 62 63
92 91 90 87 85 84 77 72 72 79 88 79 65 70 93 98 95 84 83 78 76 73 78 70 73 69 79 72 88 93 89 87 89 94 98 88 98 99 98 76 66 67 57 63 64 63 42
91 92 92 89 89 88 75 72 66 76 87 85 71 60 81 88 88 83 87 82 92 89 90 88 87 86 72 100 98 90 85 88 90 94 89 94 92 98 100 99 95 58 31 30 42 72 42
94 93 94 92 89 85 75 71 68 73 80 91 84 63 66 93 89 94 83 85 81 87 97 100 100 92 83 100 99 88 78 64 88 98 96 94 99 95 98 99 95 72 28 43 93 74 42
93 95 96 94 94 89 83 73 70 84 75 91 96 72 66 88 91 88 90 86 91 87 95 100 96 100 100 100 99 88 98 84 90 82 91 95 98 98 99 100 94 45 42 64 69 50 48
92 90 94 98 96 95 86 80 78 91 88 83 97 83 67 81 91 94 88 89 91 90 93 98 83 94 95 98 97 96 99 95 91 93 73 89 80 89 90 88 65 82 81 69 62 62 70

GFSGBSN_925_rhum_246.txt.gz
RH
77 73 68 66 65 65 63 64 63 60 60 60 60 60 58 55 53 48 42 38 35 32 30 26 24 24 22 13 16 29 22 21 26 29 19 17 18 19 20 19 19 21 19 18 16 16 16
96 90 85 81 77 70 68 65 64 62 57 55 54 51 49 48 44 39 35 31 27 26 24 24 25 31 24 14 18 25 24 26 24 23 21 20 18 18 20 20 21 20 20 18 17 16 16
99 100 95 91 90 89 87 80 76 72 67 59 57 58 53 48 42 38 34 27 22 21 21 23 30 38 30 15 27 30 24 24 25 22 21 20 19 19 20 21 19 20 23 17 16 17 18
95 96 98 97 97 93 89 93 94 90 81 75 67 64 61 58 54 47 41 34 25 21 20 26 40 46 22 20 31 30 28 24 25 24 22 21 20 18 20 19 20 21 22 20 18 18 18
100 94 100 99 98 100 94 94 97 97 95 92 86 81 70 67 63 56 44 35 23 22 28 42 48 43 20 26 28 26 28 22 23 23 24 22 20 21 21 22 22 23 20 22 20 18 20
94 100 100 100 100 99 100 91 92 96 100 99 98 98 77 78 72 62 42 26 25 36 45 50 48 46 28 21 28 25 26 25 22 22 22 23 23 25 22 22 22 23 24 25 24 20 20
94 97 100 99 100 99 100 96 98 98 93 99 99 99 97 80 80 69 40 41 26 30 34 24 24 29 19 21 25 18 23 23 22 23 27 25 26 27 21 22 23 25 27 26 22 19 24
78 78 77 87 92 99 99 98 96 95 94 95 98 100 95 88 84 73 48 36 49 59 49 33 35 36 33 30 26 21 24 23 26 26 26 28 26 21 22 25 28 28 30 28 22 22 25
77 70 64 63 67 74 95 95 94 93 89 89 87 98 99 91 84 74 54 56 70 70 51 37 38 38 32 33 29 24 21 21 26 27 30 29 21 26 27 24 31 28 30 29 28 23 22
79 70 70 74 68 91 96 92 88 88 86 85 85 88 92 92 87 69 50 74 76 64 52 36 33 32 33 29 28 23 21 19 26 26 25 25 21 29 29 29 26 30 24 26 26 28 29
75 72 70 73 72 68 86 90 96 87 80 69 68 76 81 83 90 66 82 69 80 70 52 30 30 32 30 26 24 27 23 22 22 26 29 20 26 26 26 25 26 25 26 27 27 30 29
75 74 72 70 69 71 67 76 95 88 82 76 74 72 71 93 98 76 73 62 69 60 74 33 30 35 34 29 26 25 23 23 23 24 26 22 21 24 20 24 26 25 27 30 33 30 41
77 76 74 74 75 71 73 73 74 77 80 81 78 77 89 98 94 84 84 77 81 92 35 33 30 33 33 34 32 29 31 32 30 37 35 28 27 23 26 27 22 26 31 37 36 42 37
78 82 85 85 85 84 78 74 66 62 65 70 73 74 78 99 89 86 85 90 99 54 45 29 28 29 31 29 32 32 34 34 31 29 30 30 35 35 33 32 32 31 28 35 43 34 28
83 79 72 76 87 82 77 72 73 72 64 59 68 92 87 91 89 97 88 99 84 52 36 36 30 32 31 30 30 31 32 31 31 30 34 34 36 34 36 35 38 40 40 38 46 52 54
72 71 71 72 74 72 71 67 66 78 74 61 68 69 76 60 97 91 96 78 67 40 37 35 45 37 37 36 32 31 31 47 46 37 31 33 39 40 38 33 33 36 36 46 44 65 51
74 74 73 69 69 67 66 63 69 71 79 70 70 61 63 86 99 91 88 66 53 38 39 43 39 46 45 43 38 39 42 52 51 46 33 33 39 42 39 41 43 41 43 51 54 72 98
73 70 71 71 66 66 62 69 76 74 80 75 64 58 96 89 96 71 91 60 47 48 43 44 45 45 46 44 40 38 45 53 53 53 47 49 48 48 45 47 46 47 55 55 65 62 89
69 69 70 70 68 67 62 68 78 78 81 71 56 59 98 80 80 83 62 74 63 55 48 47 49 44 44 43 46 42 50 59 57 55 58 54 55 60 59 54 52 53 56 54 60 80 94
66 62 71 78 74 68 64 58 77 79 78 61 59 87 90 93 47 51 79 76 88 68 56 57 58 52 50 50 46 44 49 59 61 60 79 64 55 54 59 47 46 55 55 56 60 98 64
72 71 78 78 74 70 72 61 54 82 75 63 59 62 62 97 84 64 51 61 66 80 59 57 57 53 49 70 52 50 44 52 60 68 60 50 62 56 48 48 51 56 53 49 56 52 70
71 73 70 74 80 79 76 74 60 62 78 71 87 88 78 69 60 68 76 59 56 61 60 60 59 49 47 50 47 53 52 52 52 52 54 60 64 81 100 50 45 52 48 47 47 45 43
68 69 64 69 78 78 76 74 70 60 85 74 62 80 61 73 60 74 67 62 55 46 50 47 53 53 59 46 43 46 46 51 51 56 58 65 74 76 67 44 49 60 51 44 41 36 39
62 60 61 60 64 75 76 72 64 65 83 75 63 58 64 84 68 55 50 54 61 71 63 57 52 54 50 52 56 54 57 56 56 56 54 71 72 72 74 57 81 37 32 31 36 37 34
67 67 67 71 72 77 79 78 70 72 73 92 72 53 58 55 58 58 52 50 50 54 70 64 63 63 56 51 66 74 68 68 63 61 66 70 76 92 90 62 46 36 32 41 47 43 38
75 74 67 66 76 78 77 78 72 73 69 92 82 60 52 54 56 52 49 50 65 66 62 62 71 69 61 69 86 97 64 50 71 75 77 84 84 96 98 95 64 38 33 27 34 57 38
81 75 75 69 81 77 72 73 66 68 69 83 88 68 60 70 51 57 54 56 49 61 77 92 80 80 65 86 100 93 71 45 58 66 82 95 100 99 96 98 68 38 36 35 81 66 38
80 83 84 78 68 65 63 67 70 74 75 82 89 77 65 75 68 61 60 58 65 62 80 95 83 90 94 97 88 97 76 51 49 43 62 65 73 84 78 100 85 40 39 67 60 50 46
83 81 82 78 73 69 66 71 78 82 82 82 86 87 74 71 98 87 84 84 83 77 64 80 60 71 68 74 73 67 71 61 53 64 45 62 50 63 61 60 53 40 44 51 51 56 54

GFSGBSN_925_rhum_252.txt.gz
RH
78 74 78 80 81 77 76 76 75 73 67 61 56 50 46 44 39 34 29 26 23 21 19 18 16 16 20 14 13 19 19 15 19 26 18 15 16 15 17 15 13 15 14 12 12 12 12
75 64 65 66 70 70 66 65 60 60 59 56 51 48 44 41 37 33 27 25 23 23 21 18 17 18 26 14 13 23 23 22 21 17 16 14 15 15 17 16 16 14 14 14 12 12 12
72 57 60 63 63 66 62 61 59 56 55 55 53 51 48 44 41 38 32 25 22 22 19 18 18 29 28 16 16 17 22 18 17 16 15 16 16 17 17 18 14 15 18 15 14 12 13
76 68 66 66 72 74 71 69 71 69 69 65 59 58 53 51 46 39 32 26 21 18 16 17 20 39 23 16 17 15 17 19 18 18 18 17 17 17 19 16 16 17 16 20 13 13 14
92 82 81 88 89 88 87 85 90 88 88 83 78 74 72 63 53 45 34 26 20 16 16 22 34 40 19 21 16 14 15 16 15 18 17 16 16 18 17 20 19 15 18 16 16 12 13
96 93 90 90 100 93 96 90 91 92 92 91 88 85 85 74 66 50 44 32 22 21 29 43 33 28 19 12 17 16 16 17 15 15 17 18 19 22 20 20 22 21 21 19 18 14 16
99 100 98 99 92 91 93 97 87 88 90 88 90 89 86 78 74 61 45 41 26 35 31 20 16 21 15 13 15 14 16 18 17 18 23 18 24 26 18 16 17 18 19 18 15 12 14
95 100 100 100 96 89 87 88 89 93 88 90 90 86 82 77 70 58 55 32 40 45 44 23 20 18 16 16 20 14 13 16 20 25 18 21 24 19 15 17 19 18 19 19 15 13 18
89 88 99 100 97 96 94 95 93 92 90 90 88 82 83 81 70 64 49 49 50 54 51 25 16 18 18 18 23 21 15 14 18 20 21 22 16 15 18 19 19 16 15 16 21 18 16
93 95 93 98 99 100 100 98 96 92 89 88 84 81 80 69 69 60 51 59 60 66 54 16 28 22 23 25 28 18 17 17 19 20 18 19 16 16 19 18 17 19 14 13 15 22 25
88 97 97 97 97 96 98 100 100 96 89 85 87 82 77 73 76 61 64 64 59 64 38 20 27 24 20 25 18 19 16 18 23 22 21 24 18 20 22 19 15 17 15 18 18 19 22
70 70 71 73 73 73 78 88 94 97 93 90 85 74 74 75 74 70 63 72 61 62 52 22 24 26 27 24 20 18 19 17 16 20 20 20 16 16 16 16 14 14 18 21 20 23 33
72 71 73 69 62 58 60 66 75 81 86 85 73 66 71 88 85 66 57 65 79 67 22 25 26 24 25 26 21 21 23 24 26 28 27 19 18 15 13 20 18 17 23 33 34 32 35
75 80 75 67 62 59 65 80 88 92 86 78 71 69 68 82 86 64 74 88 91 42 35 26 22 23 27 23 24 23 25 26 22 24 24 23 33 21 18 23 30 28 24 36 48 41 32
76 79 76 67 67 64 62 67 80 88 85 78 68 69 79 78 82 81 86 100 88 70 36 33 28 29 27 23 24 24 24 22 23 22 27 29 30 24 24 24 23 34 34 33 38 30 37
77 79 76 68 70 68 63 62 79 81 76 68 70 67 62 75 86 86 96 92 82 60 48 41 44 33 30 25 26 24 23 24 26 27 25 28 33 25 26 22 20 26 24 34 37 60 57
78 80 73 72 69 68 66 67 66 66 59 59 70 69 54 85 93 90 86 70 61 45 48 49 47 42 35 29 26 26 27 39 30 27 25 24 28 33 30 28 28 36 46 58 35 45 66
79 80 76 76 72 71 69 68 64 60 52 64 53 62 65 77 86 74 69 48 47 43 44 42 42 46 43 39 36 29 39 65 39 33 30 44 43 47 34 32 31 31 33 32 72 50 60
80 78 79 78 77 78 78 78 74 70 51 49 48 51 60 67 77 82 54 47 44 42 46 47 51 45 41 51 44 36 42 43 36 40 58 48 46 62 42 43 39 38 34 33 34 49 64
79 78 80 80 85 86 84 74 69 67 48 62 41 82 78 68 50 45 55 50 48 38 44 46 44 42 54 55 46 50 39 45 39 42 75 57 36 46 70 51 51 53 45 37 34 84 66
80 78 81 81 83 84 76 72 64 59 57 70 50 49 57 97 74 50 39 41 52 57 45 41 46 44 42 57 54 45 39 41 40 61 42 41 54 43 40 37 43 41 37 35 38 37 54
92 87 77 69 69 77 73 62 59 50 54 74 63 64 42 44 52 50 49 44 46 42 48 49 51 38 36 40 40 43 43 43 48 46 44 44 59 48 100 47 43 41 32 30 30 30 28
94 81 75 72 72 73 72 68 64 59 74 58 48 43 44 51 51 56 53 40 41 37 48 39 41 46 47 37 37 43 41 38 40 42 47 50 59 62 71 43 37 52 44 33 31 25 24
92 88 81 75 75 71 65 60 56 63 68 47 42 46 56 67 45 46 40 36 35 36 42 47 41 47 39 35 38 40 40 40 39 40 36 48 54 70 87 55 82 41 26 22 25 24 23
90 85 81 75 76 74 70 62 56 68 65 64 52 46 49 53 40 34 38 37 33 32 38 51 47 50 48 50 79 65 57 49 45 38 37 41 56 91 95 68 44 33 26 28 30 29 29
87 82 73 72 71 71 72 67 62 59 71 78 83 75 56 52 45 27 30 33 43 45 47 38 49 48 50 64 74 87 60 48 43 45 46 72 71 86 93 82 65 29 28 25 26 43 40
78 76 73 68 68 71 74 72 67 60 58 80 76 86 77 62 40 37 35 40 29 38 51 49 60 63 52 76 88 73 65 36 55 68 75 87 93 100 96 94 67 32 26 29 57 55 41
71 70 71 71 72 75 74 74 74 72 65 65 65 77 78 64 57 41 39 59 59 42 61 58 73 75 80 90 79 67 65 49 45 37 65 71 81 86 88 100 88 32 30 51 55 46 42
74 74 73 78 76 73 75 83 78 70 71 68 63 70 86 72 97 79 69 64 65 62 80 66 52 56 61 78 76 68 66 47 47 62 30 71 56 72 63 65 40 33 39 41 43 47 47

GFSGBSN_925_rhum_255.txt.gz
RH
83 77 87 76 68 70 72 73 74 71 69 64 57 50 44 39 35 31 27 23 20 18 16 16 15 14 15 27 20 18 17 16 18 20 23 20 19 20 23 21 20 18 17 16 16 14 13
83 79 81 84 71 70 70 73 72 67 62 56 51 46 42 37 34 28 25 23 20 18 17 16 15 16 29 20 16 19 18 21 18 22 17 17 19 19 21 21 23 19 18 19 17 17 15
65 86 70 82 70 59 57 59 58 57 55 52 52 49 44 39 34 30 25 21 19 18 17 16 16 24 38 29 15 17 19 18 19 16 19 18 18 21 24 26 20 20 23 22 19 18 18
66 70 72 66 76 59 54 55 56 58 56 56 55 55 50 43 38 33 28 21 16 17 18 17 20 34 46 13 15 15 16 19 18 17 18 17 18 21 22 21 22 24 23 27 18 17 17
81 72 64 63 70 51 59 61 62 67 68 70 71 68 66 61 57 52 34 22 16 19 22 18 28 48 42 19 17 14 12 15 16 18 18 17 17 23 24 28 32 24 30 25 20 15 18
92 96 85 66 69 67 78 78 81 87 86 87 85 83 77 74 69 62 42 34 23 25 26 40 42 36 27 18 17 17 16 15 17 18 21 22 26 31 32 34 41 29 27 25 23 18 17
99 96 90 81 71 83 84 92 91 88 81 90 82 83 84 78 66 61 50 46 41 46 38 32 29 28 22 16 15 16 15 17 19 22 28 27 34 40 34 26 21 22 23 24 20 16 18
99 100 95 90 79 85 93 94 93 92 82 86 81 87 77 73 66 60 64 62 52 56 71 41 32 26 23 19 21 18 16 18 22 33 28 30 36 27 23 19 21 22 24 26 20 17 20
95 100 100 99 92 90 91 96 94 86 80 91 86 74 76 75 67 63 60 58 57 60 76 45 29 21 18 17 21 21 20 20 22 24 28 34 27 20 19 21 21 22 24 21 19 16 20
89 84 99 99 99 95 100 96 90 85 89 82 79 76 77 69 71 65 58 62 61 64 90 38 34 20 22 26 33 21 19 25 22 23 24 26 20 22 22 23 22 25 20 19 23 24 33
89 89 84 93 100 100 98 96 92 91 90 85 80 76 74 71 78 68 71 64 60 66 74 25 30 24 24 31 26 21 16 20 28 28 26 30 24 26 26 22 21 24 18 21 23 29 30
88 96 94 89 86 100 100 97 94 95 92 87 81 76 73 69 70 76 62 50 64 76 82 29 30 31 31 30 27 21 22 19 20 25 26 26 20 22 20 17 18 19 21 24 26 32 42
87 90 99 99 100 100 100 100 99 97 97 93 89 78 66 81 79 66 54 62 82 90 34 29 31 27 31 32 27 23 26 27 32 33 34 25 25 21 17 19 20 23 26 49 49 48 49
80 82 97 99 98 99 97 95 95 97 96 91 86 70 66 85 80 62 58 78 99 53 49 27 30 26 33 28 27 26 28 34 31 31 35 35 39 24 21 22 30 34 30 51 61 64 49
83 75 75 76 75 72 68 67 68 75 82 82 77 70 84 76 74 63 87 100 86 70 50 52 42 45 41 28 27 30 32 32 30 30 35 42 42 27 26 24 25 32 47 40 54 45 53
80 78 71 71 74 68 66 77 86 86 84 79 72 73 72 71 75 76 91 92 85 63 51 49 55 54 55 39 30 28 31 38 34 29 27 35 41 30 26 24 23 30 39 54 64 66 68
80 78 75 73 73 67 70 90 90 90 84 76 68 87 62 74 82 94 99 87 71 52 52 56 53 58 57 52 35 37 45 50 52 39 35 45 40 39 32 38 46 44 52 52 49 65 84
78 76 76 79 73 67 67 68 76 82 77 73 74 93 82 78 97 94 91 61 50 50 50 53 48 54 56 53 56 48 60 62 48 45 50 52 52 60 43 36 38 42 42 46 80 61 80
80 74 79 77 72 69 67 66 72 77 75 70 85 92 87 70 93 95 67 64 54 47 53 54 54 50 47 52 62 58 61 53 50 52 63 61 60 73 59 54 54 64 56 44 49 70 71
83 80 81 78 73 68 67 63 62 56 54 58 73 99 90 90 80 71 78 71 64 47 48 50 50 50 53 62 55 62 55 49 44 47 64 60 49 59 80 60 62 71 60 47 48 85 78
85 90 82 78 74 74 68 62 58 52 49 70 81 85 83 99 93 84 69 61 67 61 49 54 59 59 60 78 70 76 53 58 51 47 45 48 64 53 52 54 52 54 55 48 46 50 66
86 91 84 80 77 74 70 63 59 63 62 73 88 74 71 79 68 75 75 67 60 54 58 61 67 57 54 64 69 77 66 62 63 54 55 53 72 58 76 60 52 56 50 47 42 38 39
91 90 84 85 80 78 78 69 64 75 80 71 58 58 65 72 76 78 72 61 54 53 52 51 56 56 57 56 42 51 53 52 49 61 63 60 73 78 81 54 56 69 57 44 38 34 37
100 99 87 86 86 86 81 69 65 64 67 61 49 51 70 86 70 69 57 54 53 51 56 50 51 57 49 43 45 47 45 48 50 48 48 64 63 85 97 67 86 54 38 35 29 26 31
100 100 92 85 89 86 77 62 66 60 57 65 69 56 71 74 57 50 54 52 47 45 49 58 54 60 55 58 83 74 72 63 61 53 54 53 72 89 87 93 65 48 36 35 35 45 47
100 100 100 94 83 77 73 68 64 60 61 64 73 79 83 80 66 44 47 48 63 62 51 62 67 56 66 84 92 99 97 65 56 50 53 76 70 84 98 100 89 54 33 32 29 64 53
100 100 97 90 82 76 72 64 59 57 65 79 78 80 79 86 65 61 67 64 59 55 73 67 73 71 71 98 99 93 86 45 69 81 86 91 97 91 96 95 82 49 37 32 59 64 55
100 99 89 94 85 77 69 62 57 55 59 83 80 77 81 92 89 82 75 84 88 91 81 73 82 86 95 91 92 89 82 71 60 56 78 89 96 99 98 100 94 52 44 55 64 57 53
96 98 98 90 78 74 72 68 67 62 58 70 64 66 70 87 99 83 70 66 66 65 89 94 76 79 88 95 90 77 84 73 67 81 58 85 76 88 82 80 56 47 54 60 59 61 52

GFSGBSN_925_rhum_261.txt.gz
RH
89 76 78 74 75 72 70 68 65 63 61 59 55 50 44 38 32 27 23 20 18 15 14 13 13 12 12 16 13 18 16 16 19 19 22 22 23 24 27 28 26 23 24 23 22 22 20
84 76 78 79 80 76 71 71 69 67 64 58 53 47 41 34 28 23 22 21 18 17 16 17 18 14 20 14 10 19 18 18 19 19 20 21 23 23 24 26 28 25 26 26 22 22 21
48 84 81 80 80 82 72 68 69 68 67 63 51 40 34 30 28 30 33 34 32 30 23 24 23 21 36 14 14 18 20 19 19 20 19 19 20 22 24 28 24 25 27 25 20 22 19
56 59 88 78 78 85 84 74 64 68 67 58 45 37 31 31 37 48 52 47 40 34 30 30 24 26 26 10 20 19 18 18 20 19 19 18 19 21 24 24 28 30 28 31 22 22 21
78 76 73 80 76 83 79 75 73 62 59 53 44 35 37 46 60 61 52 47 36 37 33 30 26 46 42 16 20 16 17 16 13 16 17 19 19 26 29 34 39 34 32 28 23 19 20
91 81 69 74 73 61 60 58 77 55 56 50 48 51 64 69 70 62 51 43 36 38 38 43 45 29 18 14 17 17 17 14 17 19 22 24 35 38 42 41 44 36 28 25 24 20 21
100 97 63 71 56 62 57 62 67 58 59 53 71 74 73 68 69 62 53 45 59 47 53 37 38 25 31 22 21 18 17 18 20 25 30 29 37 41 36 35 32 33 28 26 24 19 16
95 100 80 81 55 54 62 65 65 60 52 74 82 75 73 76 67 65 62 66 68 69 90 54 57 49 35 30 34 26 19 21 27 34 31 37 43 35 31 33 36 34 26 28 24 18 17
90 100 96 91 71 58 53 62 58 46 58 78 80 78 79 77 63 67 66 69 64 68 77 58 53 45 37 33 36 33 20 24 26 30 30 35 31 28 28 30 30 26 27 25 25 23 21
88 96 100 100 66 61 66 71 61 60 76 84 84 82 82 78 64 72 68 66 54 69 83 53 49 38 24 25 26 18 19 23 29 34 32 29 25 25 26 28 28 29 23 24 24 31 34
85 89 100 99 93 77 82 70 61 76 88 91 91 83 81 73 79 75 69 60 52 67 68 26 34 25 28 29 27 24 23 28 34 32 28 32 30 29 30 27 24 28 22 22 24 30 33
83 85 86 98 100 86 88 92 71 93 94 96 90 85 82 74 72 74 67 54 65 66 74 41 32 33 34 32 30 24 23 22 28 34 31 36 27 26 29 24 21 20 22 30 39 38 42
81 86 91 99 100 100 86 98 87 100 99 95 91 90 88 76 68 68 59 56 79 85 44 51 47 37 35 37 35 30 28 27 31 34 33 34 30 26 25 26 22 28 37 50 51 60 53
80 80 99 97 90 99 99 98 98 93 100 95 95 95 82 74 65 67 58 76 83 59 59 51 49 48 39 36 35 31 32 35 30 32 44 44 47 35 22 27 28 35 39 56 58 69 64
81 76 94 100 91 87 93 100 100 100 100 99 99 95 80 70 72 67 84 88 79 71 59 64 52 52 50 44 42 30 34 38 33 34 38 48 44 30 28 27 27 35 47 39 59 59 64
85 82 93 98 91 88 89 97 100 100 100 100 98 92 88 69 76 67 84 81 73 66 61 61 62 57 62 60 47 37 38 54 43 41 34 38 42 35 28 28 34 31 38 46 63 63 67
89 85 90 99 97 91 97 93 100 100 100 100 87 98 84 73 70 88 95 82 72 64 55 63 66 62 62 62 57 61 62 56 56 47 48 44 44 44 36 46 49 49 53 61 60 69 77
93 86 91 100 96 90 96 99 99 100 99 96 93 98 86 78 92 95 97 67 65 64 62 65 61 60 60 56 58 62 67 64 55 52 57 56 58 59 52 51 48 45 48 57 82 65 87
99 88 88 98 100 100 98 100 100 99 99 86 94 98 99 86 98 99 77 67 64 66 68 74 70 61 53 55 58 60 61 52 54 51 52 48 62 69 66 60 48 54 57 57 66 75 80
100 88 88 91 100 99 100 99 99 95 92 73 92 99 100 99 85 73 79 79 76 62 58 63 65 57 59 63 59 61 61 60 54 51 63 53 61 60 73 57 58 58 57 55 62 85 75
99 99 91 92 94 99 95 83 80 83 85 63 90 88 87 98 97 84 72 74 80 74 64 65 66 65 67 72 71 71 64 59 53 57 53 55 50 58 59 55 53 59 61 58 64 62 68
97 100 91 93 90 93 82 73 74 85 78 63 95 94 89 90 83 80 81 76 80 73 70 70 68 67 67 72 69 79 72 70 61 56 56 62 68 62 75 63 58 64 62 64 62 62 62
90 99 98 94 93 90 82 73 77 88 78 74 77 78 79 87 91 90 80 77 76 70 65 58 65 70 73 67 62 62 63 62 53 62 70 66 78 78 73 73 58 68 58 52 56 51 52
78 94 100 100 90 92 82 72 82 91 77 58 62 69 85 93 93 86 71 72 70 74 70 55 59 66 57 51 53 58 61 62 64 63 64 75 75 83 86 71 87 54 46 47 54 50 49
78 90 100 100 97 91 84 72 75 85 77 53 57 62 82 88 82 78 72 73 67 66 66 59 54 58 61 58 80 77 78 66 62 66 67 68 83 94 87 92 72 53 42 40 46 47 53
80 90 97 100 100 91 85 74 63 82 80 57 60 58 78 82 80 77 74 72 83 80 69 56 63 68 69 84 90 91 95 81 80 70 76 71 72 82 97 92 83 55 46 43 38 66 55
88 94 99 100 100 92 89 78 65 80 77 62 70 57 69 94 86 89 78 78 74 73 81 69 75 71 69 94 96 97 96 69 77 78 84 90 96 86 96 87 80 55 43 38 61 64 59
97 99 99 100 100 95 91 80 68 79 69 57 76 60 66 93 88 90 83 86 84 85 83 81 87 87 95 85 84 97 90 82 69 68 84 88 98 99 92 91 81 54 52 60 59 56 60
97 100 100 100 100 97 88 78 77 80 71 59 78 69 62 86 90 79 77 77 76 75 93 94 84 89 89 92 94 92 92 84 77 81 73 79 77 86 81 79 59 54 50 50 56 59 59